sat.trackr.live / text

‹ back to catalog

HORUS 1

NORAD 55690 · 2023-025A

PAYLOAD ACTIVE UNKNOWN

§ Identity

Operator
Country
EGYP
Launch date
2023-02-24
Launch site
JSC
Launch vehicle
Mass (kg)
RCS (m²)

External: N2YO · Heavens-Above · Gunter

§ Orbital elements

Epoch: 2026-05-25T05:30:39.167136Z

Period
94.53 min
Inclination
97.3467°
Eccentricity
0.0001369
Mean motion
15.23316136 rev/d
Perigee alt
494.9 km
Apogee alt
496.8 km
Semi-major
6,874.0 km
B*
2.3763e-4
RAAN
220.3054°
Arg perigee
137.6449°
Mean anomaly
222.4894°
Rev number
18,055

§ Raw data

HORUS 11 55690U 23025A   26145.22961999  .00005571  00000+0  23763-3 0  99932 55690  97.3467 220.3054 0001369 137.6449 222.4894 15.23316136180553

JSON: /api/v1/satellites/55690 · /tle

For live sub-satellite position, see the globe view (requires WebGL).

§ Visibility from observer

Set your observer location to see the next 7 days of passes ≥ 10°. The values pass through the URL so the page stays shareable.

No JS? Fill the form by hand. The geolocation button needs JavaScript.

§ Radio — SatNOGS DB

ModeDescriptionDownlinkUplink
FM S-band telemetry 2.207 GHz

1 transmitter · refreshed weekly from db.satnogs.org